Location: Aciu?a
(46.2833°N, 22.4500°E)
Time: 04:13:37
(UTC+00:00)

SL-16 R/B - Pass Details

Date: 25 October 2021
Orbit: 842 x 846 km, 71.0° (Epoch: 04 December)

Event Time Altitude Azimuth Distance (km) Brightness Sun altitude
Rises 15:54:29 0° 186° (S) 3,386 5.6 -5.5°
Reaches altitude 10° 15:57:00 10° 180° (S) 2,456 4.8 -5.9°
Maximum altitude 16:02:21 46° 108° (ESE) 1,120 2.5 -6.9°
Drops below altitude 10° 16:07:44 10° 37° (NE) 2,474 4.2 -7.8°
Sets 16:10:16 0° 32° (NNE) 3,414 5.0 -8.2°
